Tracking 18957 objects as of 22-Jan-2018
HD Live streaming from Space Station
objects crossing your sky now

FENGYUN 1C DEB

Track FENGYUN 1C DEB now!
10-day predictions


NORAD ID: 30937
Int'l Code: 1999-025BAB
Perigee: 863.9 km
Apogee: 973.3 km
Inclination: 99.4 °
Period: 103.2 minutes
Semi major axis: 7289 km
RCS: 0.031 m2 (small)
Launch date: May 10, 1999
Source: People's Republic of China (PRC)
Launch site: Taiyaun Space Center, China (TSC)

Note: This is SATELLITE DEBRIS
aabbcc
Your satellite tracking list
Your tracking list is empty




NASA's NSSDC Master Catalog

Two Line Element Set (TLE):
1 30937U 99025BAB 18022.57518014 +.00000035 +00000-0 +59543-4 0  9999
2 30937 099.3733 022.5685 0075023 322.7804 165.3264 13.94913079555423
Source of the keplerian elements: AFSPC